| time (UTC) | temp F | wind direction | speed MPH | gust MPH | rain 1hr in | rain 24hr in | rain mn in | humidity % | barometer mb |
| 20260503220504 | 56 | 191 | 1.0 | 3.0 | 0.00 | 0.02 | 0.00 | 32 | 1020.5 |
| 20260503220003 | 56 | 181 | 1.0 | 2.0 | 0.00 | 0.02 | 0.00 | 30 | 1020.5 |
| 20260503215504 | 56 | 0 | 0.0 | 2.0 | 0.00 | 0.02 | 0.00 | 27 | 1020.5 |
| 20260503215003 | 57 | 0 | 0.0 | 2.0 | 0.00 | 0.02 | 0.00 | 27 | 1020.4 |
| 20260503214503 | 57 | 0 | 0.0 | 2.0 | 0.00 | 0.02 | 0.00 | 26 | 1020.4 |
| 20260503214005 | 57 | 0 | 0.0 | 2.0 | 0.00 | 0.02 | 0.00 | 23 | 1020.5 |
| 20260503213503 | 58 | 0 | 0.0 | 2.0 | 0.00 | 0.02 | 0.00 | 23 | 1020.3 |
| 20260503213004 | 58 | 0 | 0.0 | 2.0 | 0.00 | 0.02 | 0.00 | 22 | 1020.4 |
| 20260503212503 | 58 | 0 | 0.0 | 2.0 | 0.00 | 0.02 | 0.00 | 22 | 1020.3 |
| 20260503212004 | 58 | 0 | 0.0 | 2.0 | 0.00 | 0.02 | 0.00 | 22 | 1020.3 |
| 20260503211503 | 58 | 0 | 0.0 | 2.0 | 0.00 | 0.02 | 0.00 | 22 | 1020.3 |
| 20260503211004 | 58 | 0 | 0.0 | 2.0 | 0.00 | 0.02 | 0.00 | 21 | 1020.2 |
| 20260503210503 | 58 | 0 | 0.0 | 4.0 | 0.00 | 0.02 | 0.00 | 21 | 1020.3 |
| 20260503210004 | 59 | 0 | 0.0 | 6.0 | 0.00 | 0.02 | 0.00 | 21 | 1020.3 |
| 20260503205503 | 58 | 123 | 2.0 | 6.0 | 0.00 | 0.02 | 0.02 | 21 | 1020.3 |
| 20260503205004 | 58 | 103 | 2.0 | 5.0 | 0.00 | 0.02 | 0.02 | 21 | 1020.2 |
| 20260503204504 | 58 | 106 | 1.0 | 7.0 | 0.00 | 0.02 | 0.02 | 21 | 1020.3 |
| 20260503204003 | 58 | 139 | 2.0 | 7.0 | 0.00 | 0.02 | 0.02 | 21 | 1020.3 |
| 20260503203503 | 58 | 0 | 0.0 | 6.0 | 0.00 | 0.02 | 0.02 | 22 | 1020.3 |
| 20260503203004 | 58 | 0 | 0.0 | 5.0 | 0.00 | 0.02 | 0.02 | 22 | 1020.3 |
| 20260503202504 | 58 | 64 | 2.0 | 4.0 | 0.00 | 0.02 | 0.02 | 22 | 1020.3 |
| 20260503202003 | 58 | 79 | 1.0 | 4.0 | 0.00 | 0.02 | 0.02 | 22 | 1020.3 |
| 20260503201503 | 58 | 107 | 1.0 | 4.0 | 0.00 | 0.02 | 0.02 | 23 | 1020.3 |
| 20260503201003 | 58 | 0 | 0.0 | 4.0 | 0.00 | 0.02 | 0.02 | 24 | 1020.2 |
| 20260503200503 | 58 | 43 | 1.0 | 4.0 | 0.00 | 0.02 | 0.02 | 24 | 1020.2 |
| 20260503200003 | 58 | 0 | 0.0 | 4.0 | 0.00 | 0.02 | 0.02 | 23 | 1020.2 |
| 20260503195503 | 58 | 102 | 1.0 | 4.0 | 0.00 | 0.02 | 0.02 | 23 | 1020.2 |
| 20260503195003 | 58 | 0 | 0.0 | 6.0 | 0.00 | 0.02 | 0.02 | 22 | 1020.2 |
| 20260503194504 | 59 | 0 | 0.0 | 6.0 | 0.00 | 0.02 | 0.02 | 21 | 1020.3 |
| 20260503194003 | 59 | 127 | 1.0 | 5.0 | 0.00 | 0.02 | 0.02 | 20 | 1020.2 |
| 20260503193504 | 60 | 143 | 1.0 | 4.0 | 0.00 | 0.02 | 0.02 | 19 | 1020.2 |
| 20260503193004 | 60 | 160 | 1.0 | 4.0 | 0.00 | 0.02 | 0.02 | 19 | 1020.2 |
| 20260503192504 | 60 | 42 | 1.0 | 4.0 | 0.00 | 0.02 | 0.02 | 18 | 1020.1 |
| 20260503192003 | 60 | 0 | 0.0 | 5.0 | 0.00 | 0.02 | 0.02 | 18 | 1020.1 |
| 20260503191503 | 61 | 134 | 1.0 | 5.0 | 0.00 | 0.02 | 0.02 | 17 | 1020.1 |
| 20260503191003 | 60 | 161 | 2.0 | 4.0 | 0.00 | 0.02 | 0.02 | 17 | 1020.1 |
| 20260503190504 | 60 | 214 | 3.0 | 4.0 | 0.00 | 0.02 | 0.02 | 18 | 1020.1 |
| 20260503190004 | 60 | 0 | 0.0 | 3.0 | 0.00 | 0.02 | 0.02 | 17 | 1020.0 |
| 20260503185503 | 61 | 0 | 0.0 | 3.0 | 0.00 | 0.02 | 0.02 | 17 | 1019.9 |
| 20260503185003 | 61 | 0 | 0.0 | 4.0 | 0.00 | 0.02 | 0.02 | 17 | 1019.9 |
| 20260503184504 | 61 | 0 | 0.0 | 5.0 | 0.00 | 0.02 | 0.02 | 17 | 1020.0 |
| 20260503184004 | 61 | 0 | 0.0 | 5.0 | 0.00 | 0.02 | 0.02 | 16 | 1019.9 |
| 20260503183503 | 61 | 80 | 2.0 | 5.0 | 0.00 | 0.02 | 0.02 | 16 | 1019.6 |
| 20260503183003 | 61 | 97 | 2.0 | 5.0 | 0.00 | 0.02 | 0.02 | 16 | 1019.4 |
| 20260503182503 | 61 | 115 | 1.0 | 7.0 | 0.00 | 0.02 | 0.02 | 16 | 1019.3 |
| 20260503182005 | 62 | 101 | 2.0 | 7.0 | 0.00 | 0.02 | 0.02 | 16 | 1019.3 |
| 20260503181505 | 62 | 100 | 2.0 | 8.0 | 0.00 | 0.02 | 0.02 | 16 | 1019.2 |
| 20260503181004 | 62 | 110 | 2.0 | 9.0 | 0.00 | 0.02 | 0.02 | 15 | 1019.2 |
| 20260503180503 | 62 | 118 | 2.0 | 9.0 | 0.00 | 0.02 | 0.02 | 14 | 1019.2 |
| 20260503180004 | 63 | 90 | 2.0 | 6.0 | 0.00 | 0.02 | 0.02 | 15 | 1019.1 |
| 20260503175503 | 63 | 0 | 0.0 | 5.0 | 0.00 | 0.02 | 0.02 | 15 | 1019.2 |
| 20260503175004 | 64 | 94 | 2.0 | 5.0 | 0.00 | 0.02 | 0.02 | 14 | 1019.1 |
| 20260503174504 | 64 | 77 | 2.0 | 5.0 | 0.00 | 0.02 | 0.02 | 13 | 1019.0 |
| 20260503174003 | 64 | 0 | 0.0 | 2.0 | 0.00 | 0.02 | 0.02 | 12 | 1018.9 |
| 20260503173504 | 64 | 0 | 0.0 | 2.0 | 0.00 | 0.02 | 0.02 | 12 | 1018.9 |
| 20260503173004 | 64 | 0 | 0.0 | 3.0 | 0.00 | 0.02 | 0.02 | 12 | 1018.9 |
| 20260503172504 | 65 | 0 | 0.0 | 3.0 | 0.00 | 0.02 | 0.02 | 11 | 1018.9 |
| 20260503172003 | 65 | 0 | 0.0 | 3.0 | 0.00 | 0.02 | 0.02 | 11 | 1018.8 |
| 20260503171504 | 65 | 0 | 0.0 | 2.0 | 0.00 | 0.02 | 0.02 | 11 | 1018.7 |
| 20260503171004 | 65 | 0 | 0.0 | 3.0 | 0.00 | 0.02 | 0.02 | 11 | 1018.7 |
| 20260503170503 | 65 | 0 | 0.0 | 4.0 | 0.00 | 0.02 | 0.02 | 11 | 1018.6 |
| 20260503151003 | 69 | 56 | 1.0 | 8.0 | 0.00 | 0.02 | 0.02 | 10 | 1018.5 |
| 20260503150503 | 70 | 31 | 3.0 | 8.0 | 0.00 | 0.02 | 0.02 | 10 | 1018.6 |
| 20260503131004 | 74 | 196 | 1.0 | 6.0 | 0.00 | 0.02 | 0.02 | 10 | 1019.3 |
| 20260503130503 | 72 | 0 | 0.0 | 7.0 | 0.00 | 0.02 | 0.02 | 10 | 1019.3 |
| 20260503110504 | 65 | 243 | 1.0 | 5.0 | 0.00 | 0.02 | 0.02 | 10 | 1020.0 |
| 20260503090503 | 63 | 118 | 1.0 | 5.0 | 0.00 | 0.02 | 0.02 | 19 | 1020.8 |
| 20260503081504 | 61 | 0 | 0.0 | 7.0 | 0.01 | 0.02 | 0.02 | 32 | 1020.8 |
| 20260503081004 | 60 | 257 | 2.0 | 7.0 | 0.01 | 0.02 | 0.02 | 26 | 1020.9 |
| 20260503080503 | 61 | 200 | 1.0 | 6.0 | 0.01 | 0.02 | 0.02 | 26 | 1020.9 |
| 20260503072503 | 60 | 288 | 1.0 | 4.0 | 0.00 | 0.01 | 0.01 | 45 | 1020.8 |
| 20260503072003 | 59 | 28 | 1.0 | 4.0 | 0.00 | 0.01 | 0.01 | 47 | 1021.0 |
| 20260503071503 | 58 | 232 | 2.0 | 3.0 | 0.00 | 0.01 | 0.01 | 47 | 1021.0 |
| 20260503071004 | 58 | 234 | 1.0 | 3.0 | 0.00 | 0.01 | 0.01 | 50 | 1020.8 |
| 20260503070503 | 58 | 246 | 1.0 | 3.0 | 0.00 | 0.01 | 0.01 | 50 | 1020.8 |
| 20260503055003 | 50 | 241 | 2.0 | 4.0 | 0.01 | 0.01 | 0.01 | 58 | 1020.6 |
| 20260503054504 | 50 | 0 | 0.0 | 4.0 | 0.01 | 0.01 | 0.01 | 58 | 1020.5 |
| 20260503054004 | 50 | 225 | 2.0 | 5.0 | 0.01 | 0.01 | 0.01 | 58 | 1020.5 |
| 20260503053503 | 50 | 0 | 0.0 | 5.0 | 0.01 | 0.01 | 0.01 | 58 | 1020.4 |
| 20260503053003 | 50 | 200 | 2.0 | 5.0 | 0.01 | 0.01 | 0.01 | 57 | 1020.4 |
| 20260503052503 | 50 | 252 | 1.0 | 4.0 | 0.01 | 0.01 | 0.01 | 58 | 1020.6 |
| 20260503052004 | 50 | 0 | 0.0 | 4.0 | 0.01 | 0.01 | 0.01 | 58 | 1020.6 |
| 20260503051504 | 50 | 220 | 2.0 | 15.0 | 0.01 | 0.01 | 0.01 | 57 | 1020.5 |
| 20260503051003 | 51 | 66 | 1.0 | 15.0 | 0.01 | 0.01 | 0.01 | 56 | 1020.3 |
| 20260503050503 | 51 | 87 | 4.0 | 11.0 | 0.00 | 0.00 | 0.00 | 57 | 1020.4 |
| 20260503050005 | 51 | 114 | 4.0 | 8.0 | 0.00 | 0.00 | 0.00 | 59 | 1020.2 |
| 20260503045504 | 51 | 213 | 2.0 | 4.0 | 0.00 | 0.00 | 0.00 | 60 | 1020.1 |
| 20260503045003 | 51 | 220 | 1.0 | 3.0 | 0.00 | 0.00 | 0.00 | 60 | 1019.9 |
| 20260503044503 | 51 | 0 | 0.0 | 2.0 | 0.00 | 0.00 | 0.00 | 60 | 1019.8 |
| 20260503044004 | 51 | 72 | 1.0 | 4.0 | 0.00 | 0.00 | 0.00 | 61 | 1019.9 |
| 20260503043504 | 51 | 56 | 1.0 | 4.0 | 0.00 | 0.00 | 0.00 | 61 | 1019.8 |
| 20260503043003 | 51 | 45 | 1.0 | 4.0 | 0.00 | 0.00 | 0.00 | 62 | 1019.8 |
| 20260503042503 | 51 | 337 | 1.0 | 4.0 | 0.00 | 0.00 | 0.00 | 63 | 1019.6 |
| 20260503042003 | 51 | 0 | 0.0 | 4.0 | 0.00 | 0.00 | 0.00 | 63 | 1019.6 |
| 20260503041504 | 51 | 222 | 1.0 | 4.0 | 0.00 | 0.00 | 0.00 | 63 | 1019.6 |
| 20260503041004 | 51 | 230 | 2.0 | 4.0 | 0.00 | 0.00 | 0.00 | 63 | 1019.6 |
| 20260503040503 | 51 | 0 | 0.0 | 7.0 | 0.00 | 0.00 | 0.00 | 64 | 1019.5 |
| 20260503040003 | 51 | 223 | 2.0 | 7.0 | 0.00 | 0.00 | 0.00 | 65 | 1019.6 |
| 20260503035504 | 50 | 218 | 1.0 | 4.0 | 0.00 | 0.00 | 0.00 | 66 | 1019.6 |
| 20260503035004 | 50 | 222 | 1.0 | 4.0 | 0.00 | 0.00 | 0.00 | 66 | 1019.5 |
| 20260503034503 | 50 | 209 | 2.0 | 4.0 | 0.00 | 0.00 | 0.00 | 66 | 1019.4 |
| 20260503034004 | 50 | 0 | 0.0 | 4.0 | 0.00 | 0.00 | 0.00 | 66 | 1019.3 |
| 20260503033503 | 50 | 245 | 2.0 | 4.0 | 0.00 | 0.00 | 0.00 | 66 | 1019.3 |
| 20260503033004 | 50 | 292 | 2.0 | 3.0 | 0.00 | 0.00 | 0.00 | 66 | 1019.2 |
| 20260503032504 | 50 | 283 | 1.0 | 3.0 | 0.00 | 0.00 | 0.00 | 66 | 1019.2 |
| 20260503032003 | 50 | 0 | 0.0 | 3.0 | 0.00 | 0.00 | 0.00 | 66 | 1019.3 |
| 20260503031503 | 50 | 0 | 0.0 | 2.0 | 0.00 | 0.00 | 0.00 | 66 | 1019.2 |
| 20260503031004 | 50 | 0 | 0.0 | 4.0 | 0.00 | 0.00 | 0.00 | 66 | 1019.1 |
| 20260503030504 | 50 | 0 | 0.0 | 4.0 | 0.00 | 0.00 | 0.00 | 66 | 1019.1 |
| 20260503030004 | 50 | 46 | 2.0 | 4.0 | 0.00 | 0.00 | 0.00 | 66 | 1019.2 |
| 20260503025504 | 50 | 0 | 0.0 | 3.0 | 0.00 | 0.00 | 0.00 | 67 | 1019.2 |
| 20260503025003 | 50 | 0 | 0.0 | 6.0 | 0.00 | 0.00 | 0.00 | 67 | 1019.3 |
| 20260503024503 | 49 | 76 | 1.0 | 7.0 | 0.00 | 0.00 | 0.00 | 67 | 1019.4 |
| 20260503024004 | 49 | 74 | 2.0 | 7.0 | 0.00 | 0.00 | 0.00 | 67 | 1019.5 |
| 20260503023503 | 50 | 58 | 2.0 | 8.0 | 0.00 | 0.00 | 0.00 | 67 | 1019.5 |
| 20260503023004 | 50 | 70 | 2.0 | 8.0 | 0.00 | 0.00 | 0.00 | 67 | 1019.5 |
| 20260503022503 | 50 | 55 | 2.0 | 8.0 | 0.00 | 0.00 | 0.00 | 67 | 1019.4 |
| 20260503022003 | 50 | 34 | 2.0 | 8.0 | 0.00 | 0.00 | 0.00 | 66 | 1019.5 |
| 20260503021503 | 50 | 49 | 3.0 | 8.0 | 0.00 | 0.00 | 0.00 | 66 | 1019.5 |
| 20260503021004 | 50 | 40 | 2.0 | 6.0 | 0.00 | 0.00 | 0.00 | 66 | 1019.4 |
| 20260503020503 | 50 | 205 | 1.0 | 4.0 | 0.00 | 0.00 | 0.00 | 66 | 1019.4 |
| 20260503020003 | 50 | 5 | 2.0 | 4.0 | 0.00 | 0.00 | 0.00 | 66 | 1019.4 |
| 20260503015503 | 50 | 22 | 1.0 | 6.0 | 0.00 | 0.00 | 0.00 | 66 | 1019.2 |
| 20260503015004 | 50 | 31 | 1.0 | 6.0 | 0.00 | 0.00 | 0.00 | 66 | 1019.0 |
| 20260503014503 | 50 | 325 | 2.0 | 4.0 | 0.00 | 0.00 | 0.00 | 65 | 1019.1 |
| 20260503014003 | 50 | 0 | 0.0 | 3.0 | 0.00 | 0.00 | 0.00 | 65 | 1018.9 |
| 20260503013504 | 50 | 0 | 0.0 | 4.0 | 0.00 | 0.00 | 0.00 | 65 | 1018.9 |
| 20260503013003 | 50 | 230 | 1.0 | 5.0 | 0.00 | 0.00 | 0.00 | 66 | 1019.2 |
| 20260503012503 | 50 | 0 | 0.0 | 5.0 | 0.00 | 0.00 | 0.00 | 66 | 1019.2 |
| 20260503012003 | 50 | 254 | 2.0 | 5.0 | 0.00 | 0.00 | 0.00 | 66 | 1019.4 |
| 20260503011504 | 50 | 238 | 2.0 | 4.0 | 0.00 | 0.00 | 0.00 | 65 | 1019.3 |
| 20260503011004 | 51 | 279 | 2.0 | 4.0 | 0.00 | 0.00 | 0.00 | 64 | 1019.3 |
| 20260503010503 | 51 | 273 | 2.0 | 4.0 | 0.00 | 0.00 | 0.00 | 64 | 1019.2 |
| 20260503010003 | 51 | 240 | 2.0 | 4.0 | 0.00 | 0.00 | 0.00 | 63 | 1019.2 |
| 20260503005504 | 51 | 233 | 1.0 | 4.0 | 0.00 | 0.00 | 0.00 | 63 | 1019.2 |
| 20260503005003 | 51 | 225 | 1.0 | 4.0 | 0.00 | 0.00 | 0.00 | 62 | 1019.3 |
| 20260503004503 | 51 | 225 | 2.0 | 4.0 | 0.00 | 0.00 | 0.00 | 61 | 1019.4 |
| 20260503004003 | 52 | 206 | 1.0 | 3.0 | 0.00 | 0.00 | 0.00 | 60 | 1019.5 |
| 20260503003504 | 52 | 182 | 2.0 | 3.0 | 0.00 | 0.00 | 0.00 | 59 | 1019.6 |
| 20260503003003 | 52 | 181 | 1.0 | 3.0 | 0.00 | 0.00 | 0.00 | 58 | 1019.5 |
| 20260503002503 | 52 | 0 | 0.0 | 3.0 | 0.00 | 0.00 | 0.00 | 57 | 1019.6 |
| 20260503002003 | 52 | 115 | 2.0 | 3.0 | 0.00 | 0.00 | 0.00 | 57 | 1019.5 |
| 20260503001504 | 52 | 0 | 0.0 | 1.0 | 0.00 | 0.00 | 0.00 | 56 | 1019.7 |
| 20260503001003 | 52 | 0 | 0.0 | 3.0 | 0.00 | 0.00 | 0.00 | 56 | 1019.7 |
| 20260503000503 | 52 | 0 | 0.0 | 3.0 | 0.00 | 0.00 | 0.00 | 56 | 1019.7 |
| 20260503000003 | 52 | 0 | 0.0 | 4.0 | 0.00 | 0.00 | 0.00 | 55 | 1019.6 |
| 20260502235504 | 52 | 0 | 0.0 | 4.0 | 0.00 | 0.00 | 0.00 | 55 | 1019.7 |
| 20260502235003 | 52 | 68 | 2.0 | 4.0 | 0.00 | 0.00 | 0.00 | 55 | 1019.6 |
| 20260502234503 | 52 | 0 | 0.0 | 2.0 | 0.00 | 0.01 | 0.00 | 55 | 1019.7 |
| 20260502234003 | 52 | 0 | 0.0 | 3.0 | 0.00 | 0.01 | 0.00 | 56 | 1019.7 |
| 20260502233504 | 52 | 0 | 0.0 | 4.0 | 0.00 | 0.01 | 0.00 | 55 | 1019.9 |
| 20260502233003 | 53 | 61 | 1.0 | 5.0 | 0.00 | 0.01 | 0.00 | 55 | 1020.1 |
| 20260502232503 | 52 | 55 | 2.0 | 8.0 | 0.00 | 0.01 | 0.00 | 56 | 1019.9 |
| 20260502232004 | 52 | 41 | 2.0 | 8.0 | 0.00 | 0.01 | 0.00 | 57 | 1019.9 |
| 20260502231504 | 52 | 144 | 2.0 | 5.0 | 0.00 | 0.01 | 0.00 | 58 | 1020.1 |
| 20260502231003 | 52 | 84 | 1.0 | 5.0 | 0.00 | 0.01 | 0.00 | 58 | 1020.1 |
| 20260502230503 | 52 | 55 | 2.0 | 5.0 | 0.00 | 0.01 | 0.00 | 59 | 1020.1 |
| 20260502230004 | 52 | 115 | 1.0 | 4.0 | 0.00 | 0.01 | 0.00 | 59 | 1020.2 |
| 20260502225503 | 52 | 0 | 0.0 | 4.0 | 0.00 | 0.01 | 0.00 | 59 | 1020.3 |
| 20260502225003 | 52 | 0 | 0.0 | 4.0 | 0.00 | 0.01 | 0.00 | 60 | 1020.4 |
| 20260502224503 | 52 | 80 | 1.0 | 5.0 | 0.00 | 0.01 | 0.00 | 61 | 1020.6 |
| 20260502224004 | 51 | 84 | 2.0 | 5.0 | 0.00 | 0.01 | 0.00 | 61 | 1020.6 |
| 20260502223503 | 51 | 86 | 1.0 | 5.0 | 0.00 | 0.01 | 0.00 | 62 | 1020.7 |
| 20260502223003 | 51 | 182 | 2.0 | 4.0 | 0.00 | 0.01 | 0.00 | 63 | 1020.7 |
| 20260502222503 | 51 | 87 | 1.0 | 5.0 | 0.00 | 0.01 | 0.00 | 62 | 1020.7 |
| 20260502222004 | 52 | 0 | 0.0 | 6.0 | 0.00 | 0.01 | 0.00 | 62 | 1020.9 |
| 20260502221503 | 52 | 101 | 2.0 | 7.0 | 0.00 | 0.01 | 0.00 | 62 | 1020.9 |
| 20260502221003 | 52 | 113 | 2.0 | 8.0 | 0.00 | 0.01 | 0.00 | 62 | 1021.0 |